Location: ???????
(55.9547°N, 38.5847°E)
Time: 09:33:32
(UTC+00:00)

Daily predictions for brighter satellites

Satellite Brightness Start Highest point End
(mag) Time Altitude Azimuth Time Altitude Azimuth Time Altitude Azimuth
Nadezhda 4 Rocket 4.0 18:47:05 10° S 18:53:09 70° E 18:59:16 10° NNE
Cosmos 2278 Rocket 2.9 18:48:46 10° SW 18:54:24 61° NW 19:00:04 10° NNE
Okean 2 4.2 18:50:48 10° SSE 18:54:34 35° E 18:58:22 10° NNE
Okean 1 Rocket 3.5 18:50:23 10° NNW 18:54:50 65° W 18:59:14 10° S
Cosmos 1953 4.3 18:52:12 10° NNE 18:55:03 18° ENE 18:57:53 10° ESE
STARLINK-1221 3.3 18:52:18 10° W 18:55:17 43° S 18:58:16 10° ESE
STARLINK-1222 3.3 18:53:09 10° W 18:56:08 43° S 18:59:06 10° ESE
STARLINK-1199 3.7 18:52:24 10° WSW 18:56:29 58° S 19:00:34 10° E
STARLINK-1214 3.3 18:54:02 10° W 18:57:01 43° S 19:00:00 10° ESE
Cosmos 1805 3.3 18:53:10 10° NNW 18:57:09 87° WSW 19:01:04 10° S
Cosmos 1470 3.9 18:53:38 10° N 18:57:09 32° ENE 19:00:38 10° SE
Resurs 01 Rocket 3.8 18:55:22 10° SW 18:58:52 22° W 19:02:24 10° NW
STARLINK-1269 3.9 18:55:02 10° SW 18:59:00 45° SSE 19:02:58 10° E
STARLINK-1228 3.6 18:56:43 10° W 19:00:03 43° SSW 19:03:23 10° ESE
Cosmos 1455 Rocket 3.4 18:56:17 10° N 19:00:34 53° ENE 19:04:48 10° SSE
STARLINK-1210 3.7 18:57:21 10° WSW 19:01:26 58° S 19:05:31 10° E
STARLINK-1200 3.9 18:59:57 10° WSW 19:03:57 46° SSE 19:07:55 10° E
STARLINK-1235 3.5 19:01:13 10° W 19:04:18 40° SSW 19:07:22 10° ESE
STARLINK-1219 3.7 19:02:19 10° W 19:06:24 58° S 19:10:29 10° ESE
NOSS 8 (H) 4.5 19:04:03 10° SSW 19:06:58 42° SE 19:09:59 10° ENE
STARLINK-1192 3.9 19:04:55 10° WSW 19:08:54 47° SSE 19:12:55 10° E
Cosmos 371 Rocket 4.1 19:04:41 10° SW 19:09:29 58° WNW 19:14:21 10° NNE
Cosmos 1758 4.3 19:06:04 10° N 19:09:53 38° ENE 19:13:42 10° SE
Cosmos 1110 Rocket 4.0 19:04:48 10° SSW 19:09:57 69° ESE 19:15:07 10° NNE
Terra 1.9 19:06:06 10° SSE 19:10:52 85° WSW 19:15:41 10° NNW
STARLINK-1211 3.7 19:07:18 10° W 19:11:23 58° S 19:15:28 10° ESE
SPOT 1/Viking Rocket 4.4 19:06:30 10° S 19:11:27 47° W 19:16:27 10° NNW
STARLINK-1244 3.8 19:09:51 10° WSW 19:13:52 49° SSE 19:17:53 10° E
SL-4 R/B 4.0 19:11:27 10° S 19:14:07 15° SE 19:16:50 10° ESE
CARTOSAT-1 4.2 19:11:44 10° S 19:15:58 53° W 19:20:14 10° NNW
STARLINK-1245 3.7 19:12:15 10° W 19:16:20 58° S 19:20:25 10° ESE
Cosmos 1842 3.8 19:13:57 10° SSE 19:17:39 43° E 19:21:21 10° NNE
STARLINK-1138 3.8 19:14:49 10° WSW 19:18:50 50° SSE 19:22:51 10° E
ERBS 2.3 19:17:36 10° WSW 19:20:56 84° N 19:24:16 10° ENE
STARLINK-1233 3.7 19:17:12 10° W 19:21:17 57° S 19:25:21 10° ESE
STARLINK-1234 3.8 19:18:56 10° W 19:21:59 35° SSW 19:25:01 10° SE
STARLINK-1143 3.8 19:19:45 10° WSW 19:23:46 51° SSE 19:27:48 10° E
SJ 16-02 4.1 19:23:29 10° N 19:25:09 12° NNE 19:26:48 10° NE
STARLINK-1204 3.7 19:22:11 10° W 19:26:15 57° S 19:30:19 10° ESE
Cosmos 1331 Rocket 4.0 19:21:38 10° SSW 19:26:48 82° ESE 19:32:03 10° NNE
STARLINK-1209 3.9 19:24:45 10° W 19:27:46 33° SSW 19:30:41 11° SE
USA 215 3.3 19:21:53 10° ESE 19:28:28 84° SSW 19:35:04 10° WNW
STARLINK-1241 3.7 19:24:44 10° WSW 19:28:47 52° SSE 19:32:49 10° E
Cosmos 1733 3.7 19:26:45 10° NNW 19:30:31 57° W 19:34:14 10° S
Cosmos 1354 Rocket 4.3 19:25:13 10° NNW 19:30:31 66° ENE 19:35:49 10° SE
COSMOS 2455 4.4 19:26:50 10° SE 19:30:35 17° ESE 19:34:20 10° ENE
STARLINK-1238 3.7 19:27:10 10° W 19:31:14 56° S 19:35:18 10° ESE
Cosmos 1833 4.3 19:25:58 10° NW 19:31:40 86° ENE 19:37:15 10° SE
Cosmos 1486 Rocket 4.2 19:27:27 10° NNW 19:32:47 74° WSW 19:37:53 11° SSE
NOSS 8 (E) 4.3 19:30:32 10° WSW 19:33:36 77° NW 19:36:49 10° NE
STARLINK-1239 3.7 19:29:40 10° WSW 19:33:43 53° S 19:37:46 10° E
Cosmos 2297 Rocket 4.0 19:29:18 10° NNW 19:34:07 27° NNE 19:38:55 10° E
CENTAUR R/B 3.3 19:27:38 10° NW 19:35:21 70° SW 19:43:58 10° SE
Aureole 2 Rocket 3.3 19:32:49 10° SW 19:35:43 43° WNW 19:38:33 10° NNE
STARLINK-1201 3.7 19:32:08 10° W 19:36:12 56° S 19:40:15 10° ESE
NOSS 2-2 (D) 3.3 19:32:54 10° SSW 19:36:29 56° SE 19:40:43 10° NE
Cosmos 1302 Rocket 4.2 19:31:41 10° S 19:36:53 59° ESE 19:42:06 10° NNE
Cosmos 1544 Rocket 3.5 19:33:02 10° N 19:37:23 83° ENE 19:41:31 11° SSE
Cosmos 1092 Rocket 4.0 19:32:28 10° S 19:38:38 90° NNE 19:44:50 10° NNE
STARLINK-1240 3.7 19:34:37 10° WSW 19:38:40 54° S 19:42:44 10° E
ATLAS 3B R/B 2.8 19:32:02 10° NW 19:38:48 84° NE 19:45:47 10° SE
Spot 4 4.2 19:35:15 10° SE 19:39:55 57° ENE 19:44:41 10° N
NOSS 3-2 (C) 4.3 19:33:08 10° NW 19:40:17 61° SW 19:48:12 11° SSE
Cosmos 1378 3.7 19:36:39 10° SSW 19:40:19 58° WNW 19:44:01 10° N
Cosmos 304 Rocket 4.4 19:36:18 10° SW 19:41:02 59° WNW 19:45:49 10° NNE
STARLINK-1206 3.7 19:37:07 10° W 19:41:11 55° S 19:45:14 10° ESE
Cosmos 1271 Rocket 3.6 19:39:15 12° SSE 19:42:31 36° E 19:46:10 10° NNE
MTI 3.6 19:39:54 10° NNE 19:43:04 78° ESE 19:46:12 10° SSW
STARLINK-1203 3.7 19:39:12 10° WSW 19:43:19 55° S 19:47:26 10° E
STARLINK-1216 3.7 19:39:34 10° WSW 19:43:37 55° S 19:47:42 10° E
Cosmos 1242 Rocket 2.9 19:41:26 11° S 19:44:47 50° E 19:48:23 10° NNE
STARLINK-1205 3.8 19:42:05 10° W 19:46:08 54° S 19:50:11 10° ESE
STARLINK-1237 3.7 19:44:31 10° WSW 19:48:35 56° S 19:52:40 10° E
Lacrosse 4 Rocket 4.1 19:45:41 10° NNW 19:49:04 21° NNE 19:52:22 10° ENE
NOSS 5 (C) 4.3 19:46:15 10° NW 19:49:16 80° NE 19:52:45 10° SE
STARLINK-1218 3.8 19:47:04 10° W 19:51:07 53° S 19:55:09 10° ESE
Cosmos 1867 3.7 19:46:57 10° NW 19:52:24 69° SW 19:57:28 12° SSE
Cosmos 1707 3.5 19:49:26 13° SSE 19:52:35 39° E 19:56:13 10° NNE
SL-27 R/B 3.7 19:49:30 10° NW 19:52:49 34° WSW 19:55:55 11° S
STARLINK-1202 3.7 19:49:30 10° WSW 19:53:34 56° S 19:57:39 10° E
NOSS 2-2 (E) 3.3 19:50:03 10° SW 19:53:46 85° SE 19:58:21 10° NE
NOSS 3-4 (A) 4.3 19:49:16 10° S 19:54:24 30° ESE 19:59:50 10° ENE
NOSS 3-4 (C) 4.3 19:49:23 10° S 19:54:30 30° ESE 19:59:56 10° ENE
Cosmos 1726 2.7 19:51:36 10° N 19:55:14 49° ENE 19:58:20 13° SSE
STARLINK-1254 3.8 19:52:01 10° W 19:56:04 52° SSW 20:00:06 10° ESE
ALOS 2 3.4 19:53:01 10° SE 19:57:05 42° ENE 20:01:15 10° N
Cosmos 2297 4.3 19:53:02 10° SW 19:58:42 63° NW 20:04:26 10° NNE
Cosmos 1943 Rocket 2.2 19:53:16 10° SSW 19:58:49 78° ESE 20:04:28 10° NE
COSMOS 2487 2.6 19:57:11 10° NNW 20:00:40 69° ENE 20:03:33 14° SE
SeaSat 1 3.3 19:56:34 10° NE 20:01:00 32° ESE 20:04:48 13° S
STARLINK-1231 3.8 19:56:59 10° W 20:01:01 51° SSW 20:05:02 10° ESE
STARLINK-1246 3.7 19:59:27 10° WSW 20:03:31 57° S 20:07:36 10° E
BREEZE-M DEB 4.1 20:02:32 10° SW 20:05:42 36° SSE 20:14:29 10° E
STARLINK-1232 3.8 20:01:59 10° W 20:06:00 49° SSW 20:10:00 10° ESE
EO 1 Del DPAF 3.6 20:02:45 10° NNE 20:06:27 49° E 20:09:29 14° S
S3M 4.0 20:01:40 10° N 20:07:52 86° ENE 20:13:29 13° SSE
Meteor 2-10 4.0 20:03:14 10° NNW 20:08:20 86° ENE 20:12:42 14° SSE
STARLINK-1224 3.6 20:04:24 10° WSW 20:08:29 58° S 20:12:33 10° E
Aureole 3 Rocket 4.4 20:03:42 10° NNW 20:09:26 69° W 20:17:11 11° S
STARLINK-1208 3.9 20:06:56 10° W 20:10:56 48° SSW 20:14:56 10° ESE
Cosmos 2227 Rocket 3.7 20:06:11 10° NNW 20:11:22 34° NE 20:16:31 10° ESE
Cosmos 1461 3.9 20:08:16 10° WSW 20:12:29 53° NNW 20:16:54 10° NE
Cosmos 1975 Rocket 3.7 20:08:32 10° SSW 20:12:52 54° WNW 20:17:13 10° N
STARLINK-1225 3.6 20:09:22 10° WSW 20:13:28 58° S 20:17:32 10° E
Cosmos 2369 Rocket 2.2 20:09:05 10° SSW 20:14:44 76° ESE 20:20:24 10° NE
Cosmos 292 Rocket 3.8 20:10:19 10° SSW 20:15:09 74° ESE 20:20:02 10° NNE
STARLINK-1271 3.9 20:11:56 10° W 20:15:56 47° SSW 20:19:55 10° ESE
STARLINK-1212 4.3 20:14:54 10° W 20:17:25 22° SSW 20:18:39 18° S
STARLINK-1105 4.3 20:15:22 10° W 20:17:52 22° SSW 20:19:06 18° S
NOSS 2-2 (C) 3.5 20:14:41 10° WSW 20:18:23 80° NW 20:22:55 10° NE
STARLINK-1230 3.6 20:14:20 10° WSW 20:18:25 58° S 20:22:29 10° E
STARLINK-1247 4.3 20:16:15 10° W 20:18:45 22° SSW 20:19:59 18° S
STARLINK-1227 4.3 20:16:45 10° W 20:19:14 22° SSW 20:20:26 18° S
RESURS DK-1 4.4 20:18:05 11° SE 20:19:58 14° ESE 20:22:12 10° ENE
STARLINK-1226 4.3 20:17:36 10° W 20:20:06 22° SSW 20:21:16 18° S
Aureole 3 3.1 20:16:44 10° N 20:20:06 55° ENE 20:22:18 17° SSE
STARLINK-1154 3.9 20:16:54 10° W 20:20:53 45° SSW 20:24:52 10° ESE
STARLINK-1215 4.3 20:18:30 10° W 20:20:59 22° SSW 20:22:09 18° S
Cosmos 1553 Rocket 4.3 20:15:06 10° NNW 20:21:21 63° W 20:27:04 12° S
Thor Agena Rocket 3.6 20:16:19 10° NNE 20:21:40 74° ESE 20:26:36 12° S
ATLAS 2AS CENTAUR R/B 3.3 20:14:56 10° SSW 20:22:35 51° SE 20:30:09 10° NE
STARLINK-1217 4.3 20:20:20 10° W 20:22:48 21° SSW 20:23:53 18° S
Cosmos 2026 Rocket 4.4 20:17:03 10° SSW 20:23:19 64° WNW 20:29:41 10° N
STARLINK-1243 3.6 20:19:19 10° W 20:23:23 58° S 20:27:28 10° ESE
STARLINK-1229 4.4 20:21:15 10° W 20:23:42 21° SSW 20:24:46 18° S
Cosmos 1340 Rocket 2.8 20:19:37 10° NNW 20:23:42 88° W 20:26:55 16° SSE
STARLINK-1270 4.4 20:22:09 10° W 20:24:35 21° SSW 20:25:38 18° S
STARLINK-1197 4.0 20:21:52 10° W 20:25:49 44° SSW 20:29:47 10° SE
ATLAS CENTAUR R/B 2.4 20:23:28 15° S 20:26:11 28° ESE 20:29:43 10° ENE
STARLINK-1189 4.4 20:23:57 10° W 20:26:22 20° SSW 20:27:22 18° S
STARLINK-1188 4.4 20:24:52 10° W 20:27:17 20° SSW 20:28:14 18° S
STARLINK-1187 4.5 20:26:01 10° WSW 20:28:17 19° SSW 20:29:05 17° S
STARLINK-1236 3.6 20:24:16 10° W 20:28:21 58° S 20:32:25 10° ESE
Cosmos 1656 Rocket 3.8 20:23:30 11° SSW 20:28:49 56° ESE 20:34:15 10° NE
Cosmos 1908 3.6 20:25:31 10° N 20:29:17 55° ENE 20:32:14 15° SSE
Cosmos 1626 4.4 20:27:28 10° ESE 20:29:27 14° E 20:31:26 10° NE
STARLINK-1191 4.4 20:27:20 10° WSW 20:29:41 20° SSW 20:30:32 18° S
Cosmos 1025 Rocket 3.0 20:26:06 13° S 20:29:54 90° SSW 20:34:15 10° NNE
STARLINK-1221 4.4 20:28:18 10° WSW 20:30:38 19° SSW 20:31:27 18° S
STARLINK-1198 4.0 20:26:50 10° W 20:30:46 43° SSW 20:34:43 10° SE
STARLINK-1222 4.4 20:29:09 10° WSW 20:31:28 19° SSW 20:32:17 18° S
Cosmos 1953 2.5 20:27:55 10° NNW 20:31:55 67° W 20:35:00 16° S
STARLINK-1214 4.5 20:30:04 10° WSW 20:32:21 19° SSW 20:33:08 17° S
Cosmos 2292 Rocket 3.4 20:29:59 17° SSE 20:32:24 44° E 20:35:23 10° NNE
Cosmos 1470 4.1 20:29:44 10° NNW 20:33:12 32° W 20:36:30 11° SSW
APEX 4.1 20:29:16 10° SSW 20:35:30 78° SE 20:40:30 10° NE
STARLINK-1199 4.0 20:31:50 10° W 20:35:45 41° SSW 20:39:40 10° SE
Cosmos 1655 Rocket 4.0 20:30:06 12° S 20:35:51 84° E 20:42:11 10° NNE
STARLINK-1269 3.6 20:34:12 10° W 20:38:17 57° S 20:42:21 10° ESE
Cosmos 1777 Rocket 4.0 20:33:12 10° NNW 20:38:29 85° ENE 20:43:05 14° SSE
STARLINK-1210 4.1 20:36:48 10° W 20:40:42 40° SSW 20:44:32 10° SE
Meteor 2-15 4.5 20:35:42 10° NNW 20:41:53 85° W 20:47:04 15° S
STARLINK-1200 3.6 20:39:10 10° W 20:43:14 57° S 20:47:19 10° ESE
BREEZE-M DEB (TANK)4.520:46:59ESE20:46:59ESE20:39:13SSW
STARLINK-1219 4.1 20:41:46 10° W 20:45:38 38° SSW 20:49:17 11° SE
STARLINK-1192 3.7 20:44:09 10° W 20:48:13 56° S 20:52:18 10° ESE
Cosmos 2228 3.0 20:44:14 10° N 20:48:31 78° ENE 20:51:47 17° SSE
Cosmos 1726 Rocket 3.7 20:44:41 10° N 20:49:01 67° ENE 20:52:25 16° SSE
ATLAS CENTAUR R/B 0.3 20:47:22 10° WNW 20:49:15 69° SSW 20:52:08 10° ESE
Terra 4.1 20:46:30 10° WSW 20:49:23 16° W 20:52:16 10° NW
STARLINK-1211 4.2 20:46:46 10° W 20:50:37 37° SSW 20:54:05 12° SE
SL-4 R/B 1.3 20:50:27 24° SSW 20:51:23 38° WSW 20:53:29 10° NNW
SL-4 R/B 2.9 20:48:31 10° SW 20:52:56 36° SSE 20:57:20 10° E
In-Cosmos 22 4.1 20:48:30 15° S 20:52:58 79° ESE 20:58:17 10° NNE
STARLINK-1244 3.7 20:49:06 10° W 20:53:11 56° S 20:57:15 10° ESE
Cosmos 2266 Rocket 3.9 20:49:10 14° S 20:54:28 85° E 21:00:33 10° NNE
STARLINK-52 4.3 20:54:06 20° SSE 20:54:33 21° SSE 20:57:03 10° E
Cosmos 1300 3.7 20:51:50 10° N 20:55:27 39° ENE 20:58:37 13° SE
STARLINK-1245 4.2 20:51:44 10° W 20:55:33 36° SSW 20:58:51 13° SE
ERBS 2.4 20:54:01 10° WNW 20:57:21 78° N 21:00:41 10° E
YAOGAN 11 4.3 20:54:15 15° SSE 20:57:49 69° ENE 21:02:07 10° NNW
STARLINK-1138 3.7 20:54:05 10° W 20:58:09 55° S 21:02:12 10° ESE
STARLINK-1233 4.3 20:56:42 10° W 21:00:28 34° SSW 21:03:37 14° SE
STARLINK-1143 3.7 20:59:02 10° W 21:03:05 54° S 21:07:09 10° ESE
Cosmos 2263 4.4 20:58:54 10° SW 21:04:31 73° NW 21:10:10 10° NNE
SJ 16-02 2.6 21:00:51 10° NNW 21:05:02 38° NE 21:09:12 10° ESE
STARLINK-1204 4.3 21:01:43 10° W 21:05:26 33° SSW 21:08:24 14° SSE
STARLINK-1241 3.7 21:04:02 10° W 21:08:05 53° S 21:12:08 10° ESE
STARLINK-1238 4.4 21:06:43 10° W 21:10:24 31° SSW 21:13:12 15° SSE
Helios 1B rocket 4.0 21:07:31 10° NE 21:10:58 25° E 21:13:50 13° SE
USA 215 3.6 21:05:44 10° SE 21:11:59 46° SW 21:18:15 10° WNW
Cosmos 1536 Rocket 4.4 21:08:36 10° SW 21:12:45 44° WNW 21:16:59 10° N
STARLINK-1239 3.7 21:09:00 10° W 21:13:02 52° S 21:17:05 10° ESE
Cosmos 2219 3.3 21:08:56 10° NW 21:14:41 83° ENE 21:20:19 10° SE
STARLINK-1201 4.5 21:11:42 10° W 21:15:21 30° SSW 21:17:58 16° SSE
COSMOS 2455 2.9 21:09:45 11° SSW 21:15:30 67° SE 21:21:30 10° NE
Cosmos 1674 2.6 21:13:31 18° S 21:16:14 88° E 21:20:04 10° NNE
STARLINK-1240 3.7 21:13:57 10° W 21:17:59 51° SSW 21:22:01 10° ESE
Cosmos 1271 Rocket 4.4 21:15:08 10° SW 21:18:35 29° WNW 21:22:07 10° N
Cosmos 2297 Rocket 2.4 21:13:22 10° NNW 21:19:05 77° NE 21:24:44 10° SE
GEOS 3 Rocket 4.2 21:16:29 10° ESE 21:21:40 63° NNE 21:26:57 10° NW
Cosmos 2263 Rocket 4.4 21:17:51 10° NNW 21:22:33 26° NNE 21:27:13 10° E
STARLINK-1203 3.8 21:18:47 10° W 21:22:52 50° SSW 21:26:56 10° ESE
STARLINK-1216 3.8 21:18:55 10° W 21:22:56 50° SSW 21:26:58 10° ESE
Timation 2 Rocket 4.2 21:16:51 10° NW 21:23:03 55° WSW 21:27:58 15° S
STARLINK-60 3.4 21:21:35 10° SW 21:24:35 39° SSE 21:27:36 10° E
CENTAUR R/B 4.4 21:18:57 10° WNW 21:25:14 26° WSW 21:31:08 12° SSW
STARLINK-1237 3.8 21:23:54 10° W 21:27:55 49° SSW 21:31:55 10° ESE
Helios 1A 3.3 21:24:58 18° S 21:27:58 53° WSW 21:32:06 10° NNW
Cosmos 1707 4.5 21:25:13 10° SW 21:28:34 27° WNW 21:31:56 10° N
Lacrosse 4 Rocket 2.4 21:24:25 10° NW 21:28:42 50° NE 21:32:52 10° ESE
Cosmos 2082 4.4 21:23:13 10° NNW 21:28:50 55° NE 21:34:22 10° SE
ATLAS 3B R/B 3.5 21:23:01 10° WNW 21:29:01 35° WSW 21:33:56 15° S
Cosmos 1174 3.5 21:26:35 14° SW 21:29:25 78° SE 21:33:33 10° NE
Cosmos 1726 4.1 21:27:24 10° NW 21:30:09 20° W 21:32:50 10° SW
Cosmos 1937 Rocket 4.5 21:25:16 10° NNW 21:30:20 46° NE 21:35:25 10° SE
Cosmos 1898 Rocket 4.1 21:25:45 10° NNW 21:31:04 59° NE 21:36:19 10° SE
Cosmos 2058 Rocket 3.1 21:26:52 10° NNW 21:31:19 78° W 21:34:42 17° S
STARLINK-1202 3.8 21:28:53 10° W 21:32:53 47° SSW 21:36:52 10° ESE
ALOS 2 3.8 21:30:24 14° SSW 21:33:32 31° W 21:37:30 10° NNW
Cosmos 1455 4.0 21:30:43 10° N 21:33:52 25° ENE 21:37:01 10° ESE
Meteor 2-5 Rocket 3.7 21:31:44 16° S 21:36:16 81° ESE 21:41:58 10° NNE
SeaSat 1 2.9 21:33:55 10° NNE 21:38:49 62° NW 21:43:40 10° SW
STARLINK-1246 3.9 21:38:51 10° W 21:42:49 45° SSW 21:46:46 10° SE
SL-16 R/B 3.7 21:37:11 10° SE 21:42:52 41° ENE 21:48:35 10° N
Cosmos 1943 Rocket 3.9 21:38:07 10° W 21:43:09 33° NW 21:48:15 10° NNE
NOSS 3-4 (A) 3.5 21:38:33 10° SW 21:44:38 87° NW 21:51:18 10° NE
NOSS 3-4 (C) 3.5 21:38:39 10° SW 21:44:44 87° NW 21:51:24 10° NE
SL-14 R/B 3.3 21:43:45 18° S 21:46:29 72° E 21:50:21 10° NNE
Starlink 7 placeholder 3.0 21:47:40 25° SE 21:47:40 25° SE 21:48:53 10° ESE
STARLINK-1224 3.9 21:43:49 10° W 21:47:45 43° SSW 21:51:42 10° SE
FALCON 9 DEB 3.9 21:46:54 17° SSW 21:48:54 31° SSE 21:52:00 10° E
STARLINK-1225 4.0 21:48:48 10° W 21:52:44 42° SSW 21:56:39 10° SE
STARLINK-29 3.4 21:51:41 11° SW 21:54:29 38° SSE 21:57:29 10° E
Cosmos 2084 Rocket 4.1 21:50:33 10° NW 21:54:57 62° NNE 21:59:25 10° ESE
Cosmos 1697 Rocket 4.4 21:51:19 10° SSE 21:55:29 21° ESE 21:59:39 10° NE
BREEZE-M DEB (TANK) 3.0 21:50:37 10° W 21:55:45 31° SSW 21:58:08 10° SE
Cosmos 2227 Rocket 2.2 21:50:15 10° NW 21:55:57 76° WSW 22:01:37 10° SSE
RESURS DK-1 2.3 21:53:56 15° SSW 21:57:21 83° ESE 22:01:31 10° NE
Cosmos 990 Rocket 4.0 21:52:17 10° NNW 21:57:36 86° ENE 22:02:52 10° SSE
STARLINK-1230 4.0 21:53:46 10° W 21:57:40 40° SSW 22:01:34 10° SE
Cosmos 1812 Rocket 3.9 21:53:13 10° N 21:57:42 67° ENE 22:01:47 12° SSE
Cosmos 2369 Rocket 3.8 21:54:10 10° W 21:59:18 34° NW 22:04:26 10° NNE
Cosmos 2084 3.7 21:57:06 15° SSW 22:00:41 55° SE 22:05:05 10° ENE
CZ-4 R/B 3.9 21:56:03 10° NNE 22:00:52 72° ESE 22:04:39 16° S
STARLINK-1243 4.0 21:58:46 10° W 22:02:39 39° SSW 22:06:31 10° SE
Okean 1-7 Rocket 3.7 22:00:13 16° SSW 22:03:48 73° WNW 22:08:22 10° N
Cosmos 1626 2.2 22:01:28 17° SSW 22:04:12 73° WNW 22:07:56 10° N
ATLAS CENTAUR R/B 1.7 22:00:39 10° WSW 22:04:53 65° NW 22:08:52 10° NE
Cosmos 2285 Rocket 4.3 22:00:03 10° NNW 22:06:27 71° ENE 22:12:47 10° SE
STARLINK-1236 4.1 22:03:44 10° W 22:07:35 38° SSW 22:11:25 10° SE
Landsat 4 4.3 22:09:22 10° N 22:12:58 48° WNW 22:16:01 14° SW
ATLAS 2AS CENTAUR R/B 3.3 22:05:30 10° WSW 22:13:32 72° NNW 22:21:21 10° NE
Cosmos 1602 Rocket 3.9 22:10:15 15° S 22:13:45 56° E 22:18:00 10° NNE
Nadezhda 1 Rocket 4.1 22:11:08 10° NNW 22:17:19 72° W 22:22:56 13° S
STARLINK-1269 4.2 22:13:42 10° W 22:17:30 35° SSW 22:21:16 10° SE
ADEOS II 4.5 22:16:35 10° NE 22:19:06 13° E 22:21:37 10° ESE
UNK 4.5 22:17:28 10° SE 22:21:55 52° ENE 22:26:23 10° N
STARLINK-1200 4.3 22:18:40 10° W 22:22:25 33° SSW 22:26:10 10° SE
FALCON 9 R/B 4.3 22:19:35 13° S 22:22:32 16° SSE 22:29:56 10° SE
Cosmos 1356 Rocket 4.0 22:20:13 10° NNW 22:24:12 44° W 22:27:23 15° SSW
Uosat 12 SS-18 rocket 3.9 22:21:48 10° NW 22:26:09 77° SW 22:30:32 10° SE
ATLAS 5 CENTAUR R/B 1.4 22:24:12 10° WSW 22:26:32 50° NNW 22:28:37 10° NE
STARLINK-1192 4.3 22:23:41 10° W 22:27:23 32° SSW 22:31:05 10° SE
Cosmos 1763 Rocket 4.2 22:25:32 13° S 22:29:48 42° ESE 22:34:34 10° NE
STARLINK-52 3.2 22:27:08 10° WSW 22:30:13 45° S 22:33:19 10° E
Cosmos 1300 4.1 22:27:47 10° NNW 22:30:58 25° W 22:33:33 13° SW
SL-4 R/B 2.5 22:27:31 10° WSW 22:32:14 51° S 22:36:50 10° ESE
STARLINK-1244 4.4 22:28:40 10° W 22:32:19 31° SSW 22:35:59 10° SE
ERBS 2.5 22:30:22 10° WNW 22:33:33 44° SSW 22:36:45 10° SE
STARLINK-1320 3.7 22:31:42 16° SW 22:33:43 32° SSE 22:36:33 10° E
STARLINK-1322 3.7 22:32:00 16° SW 22:34:02 32° SSE 22:36:52 10° E
STARLINK-1324 3.7 22:32:21 16° SW 22:34:24 32° SSE 22:37:14 10° E
STARLINK-1294 3.7 22:32:38 16° SW 22:34:41 32° SSE 22:37:33 10° E
STARLINK-1261 3.7 22:32:58 15° SW 22:35:01 32° SSE 22:37:52 10° E
STARLINK-1325 3.7 22:33:19 15° SW 22:35:23 32° SSE 22:38:13 10° E
STARLINK-1338 4.1 22:32:46 13° SW 22:35:43 35° SSE 22:39:12 10° E
STARLINK-1333 3.7 22:33:40 15° SW 22:35:45 32° SSE 22:38:35 10° E
Cosmos 921 Rocket 3.5 22:31:52 12° SW 22:35:45 56° WNW 22:40:07 10° NNE
STARLINK-1334 3.7 22:33:59 15° SW 22:36:04 32° SSE 22:38:54 10° E
STARLINK-1326 3.7 22:34:18 15° SW 22:36:24 32° SSE 22:39:15 10° E
STARLINK-1323 3.7 22:34:36 15° SW 22:36:43 32° SSE 22:39:34 10° E
STARLINK-1349 3.7 22:34:57 15° SW 22:37:04 32° SSE 22:39:55 10° E
STARLINK-1138 4.4 22:33:40 10° W 22:37:17 29° SSW 22:40:53 10° SSE
STARLINK-1336 3.7 22:35:16 15° SW 22:37:25 33° SSE 22:40:16 10° E
STARLINK-1331 3.7 22:35:35 15° SW 22:37:44 33° SSE 22:40:36 10° E
Meteor 1-24 Rocket 4.2 22:33:05 12° SW 22:37:59 50° WNW 22:43:24 10° N
STARLINK-1344 3.6 22:35:54 15° SW 22:38:04 33° SSE 22:40:55 10° E
STARLINK-1343 3.6 22:36:13 15° SW 22:38:24 33° SSE 22:41:16 10° E
STARLINK-1346 3.7 22:36:31 14° SW 22:38:45 33° SSE 22:41:38 10° E
STARLINK-1328 3.6 22:36:54 15° SW 22:39:06 33° SSE 22:41:57 10° E
STARLINK-1354 3.6 22:37:13 15° SW 22:39:26 33° SSE 22:42:16 10° E
STARLINK-1347 3.6 22:37:33 14° SW 22:39:45 33° SSE 22:42:37 10° E
STARLINK-1357 3.6 22:37:53 14° SW 22:40:06 33° SSE 22:42:58 10° E
STARLINK-1335 3.6 22:38:12 14° SW 22:40:26 33° SSE 22:43:18 10° E
CZ-4C R/B 3.1 22:36:20 13° S 22:40:30 37° ESE 22:46:04 10° ENE
Resurs 1-4 Rocket 3.1 22:35:39 10° NNE 22:40:38 39° E 22:45:36 10° SSE
STARLINK-1327 3.6 22:38:31 14° SW 22:40:46 33° SSE 22:43:38 10° E
STARLINK-1340 3.6 22:38:52 14° SW 22:41:07 33° SSE 22:43:59 10° E
STARLINK-1356 3.6 22:39:10 14° SW 22:41:26 34° SSE 22:44:19 10° E
STARLINK-1345 3.6 22:39:28 14° SW 22:41:45 34° SSE 22:44:37 10° E
STARLINK-1355 3.6 22:39:47 14° SW 22:42:05 34° SSE 22:44:58 10° E
Meteor 2-1 Rocket 4.5 22:36:48 10° NNW 22:42:12 55° W 22:47:12 12° S
STARLINK-1143 4.5 22:38:38 10° W 22:42:12 28° SSW 22:45:46 10° SSE
STARLINK-1371 4.0 22:39:09 12° SW 22:42:18 37° SSE 22:45:48 10° E
STARLINK-1321 3.6 22:40:09 14° SW 22:42:28 34° SSE 22:45:21 10° E
Cosmos 1437 3.7 22:40:11 13° SW 22:42:30 35° WNW 22:45:20 10° N
STARLINK-1358 3.6 22:40:29 14° SW 22:42:48 34° SSE 22:45:41 10° E
STARLINK-1332 3.6 22:40:47 14° SW 22:43:07 34° SSE 22:46:01 10° E
STARLINK-1348 3.6 22:41:05 14° SW 22:43:25 34° SSE 22:46:18 10° E
SJ 16-02 2.1 22:39:31 10° NW 22:43:38 38° WSW 22:47:12 13° S
STARLINK-1330 3.6 22:41:27 14° SW 22:43:48 34° SSE 22:46:41 10° E
STARLINK-1363 3.6 22:41:46 13° SW 22:44:08 34° SSE 22:47:01 10° E
STARLINK-1337 3.6 22:42:06 13° SW 22:44:29 34° SSE 22:47:22 10° E
STARLINK-1342 3.6 22:42:25 13° SW 22:44:48 34° SSE 22:47:41 10° E
STARLINK-1364 3.6 22:42:45 13° SW 22:45:09 35° SSE 22:48:03 10° E
STARLINK-1376 3.6 22:43:04 13° SW 22:45:29 35° SSE 22:48:22 10° E
STARLINK-1341 4.0 22:42:21 11° SW 22:45:37 38° SSE 22:49:08 10° E
Cosmos 220 Rocket 4.5 22:41:33 11° SW 22:45:43 58° WNW 22:50:09 10° NNE
STARLINK-1360 3.6 22:43:24 13° SW 22:45:49 35° SSE 22:48:43 10° E
STARLINK-1361 3.6 22:43:42 13° SW 22:46:09 35° SSE 22:49:03 10° E
Helios 1B rocket 3.0 22:42:27 10° N 22:46:28 50° WNW 22:50:09 12° SW
STARLINK-1367 3.6 22:44:00 13° SW 22:46:29 35° SSE 22:49:25 10° E
STARLINK-1366 3.6 22:44:23 13° SW 22:46:50 35° SSE 22:49:44 10° E
Cosmos 1703 4.0 22:43:53 10° SSE 22:47:37 47° E 22:51:25 10° NNE
STARLINK-1339 3.9 22:45:38 12° SW 22:48:44 37° SSE 22:52:07 10° E
Cosmos 2369 4.4 22:43:44 11° S 22:48:45 44° ESE 22:54:06 10° NE
STARLINK-1374 3.9 22:45:33 11° SW 22:48:56 39° SSE 22:52:29 10° E
GP-B 3.7 22:45:37 10° N 22:49:59 53° E 22:54:21 10° SSE
Cosmos 1980 Rocket 3.6 22:46:01 10° SSE 22:50:48 29° ESE 22:55:36 10° NE
Cosmos 1758 Rocket 3.8 22:49:14 12° S 22:53:18 68° E 22:57:43 10° NNE
MOZ.5/SAFIR/RUBIN 5/SL-8 3.8 22:48:46 10° S 22:53:23 73° WSW 22:58:04 10° NNW
CZ-2D R/B 2.8 22:49:20 10° NNE 22:54:25 47° E 22:59:27 10° S
STARLINK-1377 3.9 22:52:04 10° SW 22:55:38 41° SSE 22:59:14 10° E
Cosmos 2219 4.5 22:53:47 10° NW 22:58:14 24° WSW 23:02:17 11° SSW
STARLINK-1353 3.8 22:55:28 10° SW 22:59:02 42° SSE 23:02:38 10° E
Cosmos 1400 Rocket 3.2 22:55:02 10° N 22:59:10 69° ENE 23:03:18 10° SSE
GEOS 3 Rocket 3.9 22:54:51 10° SSE 22:59:52 47° SW 23:05:00 10° NW
STARLINK-60 3.1 22:57:20 10° W 23:00:26 48° S 23:03:31 10° ESE
Cosmos 1745 Rocket 4.3 22:55:32 12° SSW 23:01:16 59° WNW 23:07:21 10° N
COSMOS 2455 3.9 22:56:01 10° WSW 23:01:48 45° NNW 23:07:36 10° NE
STARLINK-1375 3.8 22:58:50 10° SW 23:02:26 43° SSE 23:06:02 10° E
Cosmos 2297 Rocket 3.3 22:58:00 10° NW 23:02:37 27° WSW 23:07:00 11° SSW
STARLINK-1352 3.7 23:02:13 10° SW 23:05:41 42° SSE 23:09:08 10° E
STARLINK-1350 3.8 23:02:13 10° WSW 23:05:49 44° SSE 23:09:26 10° E
Lacrosse 4 Rocket 2.2 23:03:21 10° NW 23:07:18 34° WSW 23:11:08 10° S
Cosmos 2263 Rocket 2.5 23:01:48 10° NNW 23:07:28 71° NE 23:13:02 10° SE
Timation 1 Rocket 4.3 23:03:18 10° NW 23:09:19 82° SW 23:15:17 10° SSE
Cosmos 1455 2.8 23:06:08 10° NNW 23:09:38 39° W 23:12:54 11° SSW
Meteor 2-10 Rocket 4.0 23:04:53 10° NNW 23:09:52 44° W 23:14:40 10° SSW
Cosmos 468 Rocket 4.0 23:05:31 11° SSW 23:10:24 90° NNW 23:15:35 10° NNE
Meteor 1-29 4.0 23:07:36 10° N 23:10:43 34° WNW 23:13:48 10° SW
Cosmos 1953 Rocket 4.0 23:06:27 10° S 23:10:49 59° E 23:15:10 10° NNE
Cosmos 1937 Rocket 4.1 23:07:24 10° NW 23:12:17 40° WSW 23:17:11 10° S
STARLINK-1368 3.7 23:09:05 10° WSW 23:12:43 46° SSE 23:16:22 10° E
Cosmos 2082 4.3 23:07:36 10° NW 23:12:49 39° WSW 23:17:59 10° S
Cosmos 1898 Rocket 4.5 23:08:14 10° NW 23:12:54 31° WSW 23:17:32 10° SSW
Cosmos 1842 Rocket 4.4 23:09:10 10° N 23:13:36 53° ENE 23:17:58 10° SSE
Cosmos 2150 Rocket 4.0 23:09:01 10° NNW 23:14:16 88° WSW 23:19:25 10° SSE
STARLINK-1369 3.7 23:12:32 10° WSW 23:16:11 46° SSE 23:19:50 10° E
Cosmos 2181 Rocket 4.2 23:12:28 10° NNW 23:18:51 65° W 23:25:13 10° S
STARLINK-1372 3.7 23:16:00 10° WSW 23:19:39 47° SSE 23:23:19 10° E
Cosmos 540 Rocket 3.9 23:15:09 10° S 23:20:09 55° ESE 23:25:10 10° NE
Starlink 7 placeholder 2.9 23:18:51 10° WSW 23:20:31 23° SSW 23:22:12 10° SE
CZ-4B R/B 4.0 23:17:57 10° NNE 23:23:06 59° ESE 23:28:18 10° S
STARLINK-1378 3.7 23:19:28 10° WSW 23:23:08 48° SSE 23:26:49 10° E
FALCON 9 DEB 3.3 23:22:14 10° WSW 23:25:35 52° S 23:28:58 10° E
SL-16 R/B 2.8 23:20:21 10° S 23:26:23 55° WSW 23:32:28 10° NNW
Cosmos 2322 Rocket 4.4 23:23:10 10° SE 23:26:30 16° E 23:29:51 10° ENE
STARLINK-1379 3.7 23:22:58 10° WSW 23:26:38 49° S 23:30:20 10° E
Cosmos 2278 4.1 23:21:48 10° SSW 23:27:19 57° ESE 23:32:52 10° NE
STARLINK-1329 3.7 23:24:24 10° WSW 23:28:06 49° S 23:31:48 10° E
Cosmos 1315 Rocket 3.5 23:24:16 10° N 23:28:09 54° ENE 23:32:00 10° SSE
Cosmos-2242 3.6 23:24:14 10° NNW 23:28:14 40° W 23:32:12 10° SSW
NPP 3.8 23:23:28 10° NNE 23:28:54 74° ESE 23:34:17 10° S
CZ-4C R/B 4.2 23:24:50 10° SSW 23:28:56 40° W 23:33:09 10° NNW
USA 229 DEB 3.9 23:22:29 10° NW 23:29:38 81° SW 23:37:12 10° SE
USA 229 3.9 23:22:36 10° NW 23:29:45 82° SW 23:37:17 10° SE
STARLINK-29 3.1 23:27:13 10° W 23:30:19 48° S 23:33:25 10° ESE
Cosmos 2221 3.1 23:26:26 10° N 23:30:46 62° ENE 23:35:04 10° SSE
ATLAS CENTAUR R/B 3.8 23:30:20 10° SW 23:31:20 11° SW 23:32:30 10° SSW
STARLINK-1362 3.6 23:27:57 10° WSW 23:31:40 50° S 23:35:22 10° E
NOSS 3-1 (C) 4.0 23:26:23 10° NW 23:33:31 76° SW 23:41:53 10° SE
Cosmos 1656 4.0 23:28:20 10° SW 23:33:58 66° NW 23:39:33 10° NNE
Cosmos 2084 Rocket 4.0 23:30:13 10° WNW 23:34:21 39° SW 23:38:32 10° SSE
STARLINK-1373 3.6 23:31:30 10° WSW 23:35:14 51° S 23:38:58 10° E
RESURS DK-1 4.3 23:32:26 10° W 23:35:53 24° NNW 23:39:20 10° NNE
STARLINK-1365 3.6 23:32:43 10° WSW 23:36:28 52° S 23:40:12 10° E
Cosmos 2227 4.2 23:31:21 10° NW 23:37:06 73° WSW 23:42:50 10° SSE
NOSS 3-1 (A) 4.1 23:31:34 10° NW 23:38:41 89° SW 23:47:05 10° SE
Cosmos 1697 Rocket 2.8 23:33:03 10° SSW 23:38:45 89° ESE 23:44:29 10° NE
STARLINK-1390 3.6 23:35:07 10° WSW 23:38:51 52° S 23:42:34 10° E
Cosmos 2298 Rocket 4.2 23:33:38 10° NNW 23:38:51 58° WSW 23:44:02 10° S
Cosmos 2227 Rocket 3.8 23:35:30 10° WNW 23:39:07 18° W 23:42:44 10° SW
Cosmos 1814 Rocket 4.3 23:34:03 10° SSW 23:39:22 70° ESE 23:44:39 10° NNE
Cosmos 2084 4.4 23:35:59 10° W 23:40:20 49° NNW 23:44:43 10° NE
Cosmos 1570 Rocket 4.1 23:35:28 10° SSW 23:40:48 88° ESE 23:46:08 10° NNE
Cosmos 372 Rocket 4.3 23:36:01 10° NW 23:40:56 47° WSW 23:45:51 10° S
BREEZE-M R/B 3.4 23:37:26 10° WSW 23:41:21 29° S 23:43:54 10° ESE
Cosmos 1125 Rocket 3.5 23:37:47 10° NNW 23:43:02 83° WSW 23:48:14 10° SSE
NOSS 7 (H) 4.0 23:40:01 10° SW 23:43:04 85° SE 23:46:05 10° NE
ATLAS CENTAUR R/B 3.3 23:40:51 10° WNW 23:44:23 27° NNW 23:47:44 10° NE
Cosmos 1825 Rocket 4.1 23:45:18 10° SSW 23:49:29 47° WNW 23:53:43 10° N
